owner,sensor,date,latitude,longitude,vertical_datum,wind_speed,wind_to_direction,wind_speed_of_gust,qcFlag 
DISL,ioos:station:DISL:DISL:1,2016-05-01T00:00:00Z,30.2513,-88.0778,9.68,5.98,115.7,-9999.0,'1111122,1111122,1111122' 
DISL,ioos:station:DISL:DISL:1,2016-05-01T00:30:00Z,30.2513,-88.0778,9.68,3.54,122.1,-9999.0,'1111122,1111122,1111122' 
DISL,ioos:station:DISL:DISL:1,2016-05-01T01:00:00Z,30.2513,-88.0778,9.68,4.99,122.6,-9999.0,'1111122,1111122,1111122' 
DISL,ioos:station:DISL:DISL:1,2016-05-01T01:30:00Z,30.2513,-88.0778,9.68,5.27,256.9,-9999.0,'1111122,1111122,1111122' 
DISL,ioos:station:DISL:DISL:1,2016-05-01T02:00:00Z,30.2513,-88.0778,9.68,2.58,204.4,-9999.0,'1111122,1111122,1111122' 
DISL,ioos:station:DISL:DISL:1,2016-05-01T02:30:00Z,30.2513,-88.0778,9.68,5.87,149.7,-9999.0,'1111122,1111122,1111122' 
DISL,ioos:station:DISL:DISL:1,2016-05-01T03:00:00Z,30.2513,-88.0778,9.68,10.97,126.3,-9999.0,'1111122,1111122,1111122' 
DISL,ioos:station:DISL:DISL:1,2016-05-01T03:30:00Z,30.2513,-88.0778,9.68,8.7,135.3,-9999.0,'1111122,1111122,1111122' 
DISL,ioos:station:DISL:DISL:1,2016-05-01T04:00:00Z,30.2513,-88.0778,9.68,5.78,135.5,-9999.0,'1111122,1111122,1111122' 
DISL,ioos:station:DISL:DISL:1,2016-05-01T04:30:00Z,30.2513,-88.0778,9.68,5.51,148.0,-9999.0,'1111122,1111122,1111122' 
DISL,ioos:station:DISL:DISL:1,2016-05-01T05:00:00Z,30.2513,-88.0778,9.68,5.32,148.3,-9999.0,'1111122,1111122,1111122' 
DISL,ioos:station:DISL:DISL:1,2016-05-01T05:30:00Z,30.2513,-88.0778,9.68,4.99,149.5,-9999.0,'1111122,1111122,1111122' 
DISL,ioos:station:DISL:DISL:1,2016-05-01T06:00:00Z,30.2513,-88.0778,9.68,3.99,141.6,-9999.0,'1111122,1111122,1111122' 
DISL,ioos:station:DISL:DISL:1,2016-05-01T06:30:00Z,30.2513,-88.0778,9.68,4.05,146.1,-9999.0,'1111122,1111122,1111122' 
DISL,ioos:station:DISL:DISL:1,2016-05-01T07:00:00Z,30.2513,-88.0778,9.68,3.86,153.8,-9999.0,'1111122,1111122,1111122' 
DISL,ioos:station:DISL:DISL:1,2016-05-01T07:30:00Z,30.2513,-88.0778,9.68,4.07,156.6,-9999.0,'1111122,1111122,1111122' 
DISL,ioos:station:DISL:DISL:1,2016-05-01T08:00:00Z,30.2513,-88.0778,9.68,4.22,161.0,-9999.0,'1111122,1111122,1111122' 
DISL,ioos:station:DISL:DISL:1,2016-05-01T08:30:00Z,30.2513,-88.0778,9.68,4.06,160.7,-9999.0,'1111122,1111122,1111122' 
DISL,ioos:station:DISL:DISL:1,2016-05-01T09:00:00Z,30.2513,-88.0778,9.68,2.93,152.2,-9999.0,'1111122,1111122,1111122' 
DISL,ioos:station:DISL:DISL:1,2016-05-01T09:30:00Z,30.2513,-88.0778,9.68,3.43,150.9,-9999.0,'1111122,1111122,1111122' 
DISL,ioos:station:DISL:DISL:1,2016-05-01T10:00:00Z,30.2513,-88.0778,9.68,4.06,150.7,-9999.0,'1111122,1111122,1111122' 
DISL,ioos:station:DISL:DISL:1,2016-05-01T10:30:00Z,30.2513,-88.0778,9.68,4.12,147.8,-9999.0,'1111122,1111122,1111122' 
DISL,ioos:station:DISL:DISL:1,2016-05-01T11:00:00Z,30.2513,-88.0778,9.68,4.14,147.7,-9999.0,'1111122,1111122,1111122' 
DISL,ioos:station:DISL:DISL:1,2016-05-01T11:30:00Z,30.2513,-88.0778,9.68,4.02,140.7,-9999.0,'1111122,1111122,1111122' 
DISL,ioos:station:DISL:DISL:1,2016-05-01T12:00:00Z,30.2513,-88.0778,9.68,3.84,146.2,-9999.0,'1111122,1111122,1111122' 
DISL,ioos:station:DISL:DISL:1,2016-05-01T12:30:00Z,30.2513,-88.0778,9.68,4.15,135.1,-9999.0,'1111122,1111122,1111122' 
DISL,ioos:station:DISL:DISL:1,2016-05-01T13:00:00Z,30.2513,-88.0778,9.68,4.05,134.5,-9999.0,'1111122,1111122,1111122' 
DISL,ioos:station:DISL:DISL:1,2016-05-01T13:30:00Z,30.2513,-88.0778,9.68,3.58,125.8,-9999.0,'1111122,1111122,1111122' 
DISL,ioos:station:DISL:DISL:1,2016-05-01T14:00:00Z,30.2513,-88.0778,9.68,4.6,131.1,-9999.0,'1111122,1111122,1111122' 
DISL,ioos:station:DISL:DISL:1,2016-05-01T14:30:00Z,30.2513,-88.0778,9.68,4.43,137.1,-9999.0,'1111122,1111122,1111122' 
DISL,ioos:station:DISL:DISL:1,2016-05-01T15:00:00Z,30.2513,-88.0778,9.68,5.17,129.4,-9999.0,'1111122,1111122,1111122' 
DISL,ioos:station:DISL:DISL:1,2016-05-01T15:30:00Z,30.2513,-88.0778,9.68,4.37,133.7,-9999.0,'1111122,1111122,1111122' 
DISL,ioos:station:DISL:DISL:1,2016-05-01T16:00:00Z,30.2513,-88.0778,9.68,4.24,135.1,-9999.0,'1111122,1111122,1111122' 
DISL,ioos:station:DISL:DISL:1,2016-05-01T16:30:00Z,30.2513,-88.0778,9.68,3.8,134.5,-9999.0,'1111122,1111122,1111122' 
DISL,ioos:station:DISL:DISL:1,2016-05-01T17:00:00Z,30.2513,-88.0778,9.68,4.12,141.5,-9999.0,'1111122,1111122,1111122' 
DISL,ioos:station:DISL:DISL:1,2016-05-01T17:30:00Z,30.2513,-88.0778,9.68,3.51,139.1,-9999.0,'1111122,1111122,1111122' 
DISL,ioos:station:DISL:DISL:1,2016-05-01T18:00:00Z,30.2513,-88.0778,9.68,3.45,140.1,-9999.0,'1111122,1111122,1111122' 
DISL,ioos:station:DISL:DISL:1,2016-05-01T18:30:00Z,30.2513,-88.0778,9.68,3.09,129.9,-9999.0,'1111122,1111122,1111122' 
DISL,ioos:station:DISL:DISL:1,2016-05-01T19:00:00Z,30.2513,-88.0778,9.68,2.2,132.0,-9999.0,'1111122,1111122,1111122' 
DISL,ioos:station:DISL:DISL:1,2016-05-01T19:30:00Z,30.2513,-88.0778,9.68,2.01,109.4,-9999.0,'1111122,1111122,1111122' 
DISL,ioos:station:DISL:DISL:1,2016-05-01T20:00:00Z,30.2513,-88.0778,9.68,0.71,92.3,-9999.0,'1111122,1111122,1111122' 
DISL,ioos:station:DISL:DISL:1,2016-05-01T20:30:00Z,30.2513,-88.0778,9.68,0.56,38.54,-9999.0,'1111122,1111122,1111122' 
DISL,ioos:station:DISL:DISL:1,2016-05-01T21:00:00Z,30.2513,-88.0778,9.68,1.11,62.38,-9999.0,'1111122,1111122,1111122' 
DISL,ioos:station:DISL:DISL:1,2016-05-01T21:30:00Z,30.2513,-88.0778,9.68,1.99,70.32,-9999.0,'1111122,1111122,1111122' 
DISL,ioos:station:DISL:DISL:1,2016-05-01T22:00:00Z,30.2513,-88.0778,9.68,0.74,50.37,-9999.0,'1111122,1111122,1111122' 
DISL,ioos:station:DISL:DISL:1,2016-05-01T22:30:00Z,30.2513,-88.0778,9.68,0.81,34.79,-9999.0,'1111122,1111122,1111122' 
DISL,ioos:station:DISL:DISL:1,2016-05-01T23:00:00Z,30.2513,-88.0778,9.68,1.96,124.6,-9999.0,'1111122,1111122,1111122' 
DISL,ioos:station:DISL:DISL:1,2016-05-01T23:30:00Z,30.2513,-88.0778,9.68,3.87,144.9,-9999.0,'1111122,1111122,1111122' 
DISL,ioos:station:DISL:DISL:1,2016-05-02T00:00:00Z,30.2513,-88.0778,9.68,7.44,129.2,-9999.0,'1111122,1111122,1111122' 
DISL,ioos:station:DISL:DISL:1,2016-05-02T00:30:00Z,30.2513,-88.0778,9.68,6.03,139.4,-9999.0,'1111122,1111122,1111122' 
DISL,ioos:station:DISL:DISL:1,2016-05-02T01:00:00Z,30.2513,-88.0778,9.68,6.08,145.5,-9999.0,'1111122,1111122,1111122' 
DISL,ioos:station:DISL:DISL:1,2016-05-02T01:30:00Z,30.2513,-88.0778,9.68,5.09,162.9,-9999.0,'1111122,1111122,1111122' 
DISL,ioos:station:DISL:DISL:1,2016-05-02T02:00:00Z,30.2513,-88.0778,9.68,6.48,162.7,-9999.0,'1111122,1111122,1111122' 
DISL,ioos:station:DISL:DISL:1,2016-05-02T02:30:00Z,30.2513,-88.0778,9.68,3.37,169.6,-9999.0,'1111122,1111122,1111122' 
DISL,ioos:station:DISL:DISL:1,2016-05-02T03:00:00Z,30.2513,-88.0778,9.68,5.65,156.5,-9999.0,'1111122,1111122,1111122' 
DISL,ioos:station:DISL:DISL:1,2016-05-02T03:30:00Z,30.2513,-88.0778,9.68,7.37,154.9,-9999.0,'1111122,1111122,1111122' 
DISL,ioos:station:DISL:DISL:1,2016-05-02T04:00:00Z,30.2513,-88.0778,9.68,6.55,155.3,-9999.0,'1111122,1111122,1111122' 
DISL,ioos:station:DISL:DISL:1,2016-05-02T04:30:00Z,30.2513,-88.0778,9.68,5.5,137.7,-9999.0,'1111122,1111122,1111122' 
DISL,ioos:station:DISL:DISL:1,2016-05-02T05:00:00Z,30.2513,-88.0778,9.68,5.47,105.9,-9999.0,'1111122,1111122,1111122' 
DISL,ioos:station:DISL:DISL:1,2016-05-02T05:30:00Z,30.2513,-88.0778,9.68,5.14,138.3,-9999.0,'1111122,1111122,1111122' 
DISL,ioos:station:DISL:DISL:1,2016-05-02T06:00:00Z,30.2513,-88.0778,9.68,3.29,162.0,-9999.0,'1111122,1111122,1111122' 
DISL,ioos:station:DISL:DISL:1,2016-05-02T06:30:00Z,30.2513,-88.0778,9.68,0.62,315.9,-9999.0,'1111122,1111122,1111122' 
DISL,ioos:station:DISL:DISL:1,2016-05-02T07:00:00Z,30.2513,-88.0778,9.68,1.85,160.2,-9999.0,'1111122,1111122,1111122' 
DISL,ioos:station:DISL:DISL:1,2016-05-02T07:30:00Z,30.2513,-88.0778,9.68,2.12,100.5,-9999.0,'1111122,1111122,1111122' 
DISL,ioos:station:DISL:DISL:1,2016-05-02T08:00:00Z,30.2513,-88.0778,9.68,2.19,126.3,-9999.0,'1111122,1111122,1111122' 
DISL,ioos:station:DISL:DISL:1,2016-05-02T08:30:00Z,30.2513,-88.0778,9.68,2.65,122.7,-9999.0,'1111122,1111122,1111122' 
DISL,ioos:station:DISL:DISL:1,2016-05-02T09:00:00Z,30.2513,-88.0778,9.68,3.95,110.6,-9999.0,'1111122,1111122,1111122' 
DISL,ioos:station:DISL:DISL:1,2016-05-02T09:30:00Z,30.2513,-88.0778,9.68,4.61,125.7,-9999.0,'1111122,1111122,1111122' 
DISL,ioos:station:DISL:DISL:1,2016-05-02T10:00:00Z,30.2513,-88.0778,9.68,4.24,120.4,-9999.0,'1111122,1111122,1111122' 
DISL,ioos:station:DISL:DISL:1,2016-05-02T10:30:00Z,30.2513,-88.0778,9.68,4.61,130.6,-9999.0,'1111122,1111122,1111122' 
DISL,ioos:station:DISL:DISL:1,2016-05-02T11:00:00Z,30.2513,-88.0778,9.68,2.66,128.0,-9999.0,'1111122,1111122,1111122' 
DISL,ioos:station:DISL:DISL:1,2016-05-02T11:30:00Z,30.2513,-88.0778,9.68,3.76,133.8,-9999.0,'1111122,1111122,1111122' 
DISL,ioos:station:DISL:DISL:1,2016-05-02T12:00:00Z,30.2513,-88.0778,9.68,3.79,124.6,-9999.0,'1111122,1111122,1111122' 
DISL,ioos:station:DISL:DISL:1,2016-05-02T12:30:00Z,30.2513,-88.0778,9.68,3.97,123.8,-9999.0,'1111122,1111122,1111122' 
DISL,ioos:station:DISL:DISL:1,2016-05-02T13:00:00Z,30.2513,-88.0778,9.68,4.69,129.0,-9999.0,'1111122,1111122,1111122' 
DISL,ioos:station:DISL:DISL:1,2016-05-02T13:30:00Z,30.2513,-88.0778,9.68,4.6,129.7,-9999.0,'1111122,1111122,1111122' 
DISL,ioos:station:DISL:DISL:1,2016-05-02T14:00:00Z,30.2513,-88.0778,9.68,5.0,126.8,-9999.0,'1111122,1111122,1111122' 
DISL,ioos:station:DISL:DISL:1,2016-05-02T14:30:00Z,30.2513,-88.0778,9.68,4.26,134.2,-9999.0,'1111122,1111122,1111122' 
DISL,ioos:station:DISL:DISL:1,2016-05-02T15:00:00Z,30.2513,-88.0778,9.68,4.13,129.3,-9999.0,'1111122,1111122,1111122' 
DISL,ioos:station:DISL:DISL:1,2016-05-02T15:30:00Z,30.2513,-88.0778,9.68,3.83,126.9,-9999.0,'1111122,1111122,1111122' 
DISL,ioos:station:DISL:DISL:1,2016-05-02T16:00:00Z,30.2513,-88.0778,9.68,3.87,137.9,-9999.0,'1111122,1111122,1111122' 
DISL,ioos:station:DISL:DISL:1,2016-05-02T16:30:00Z,30.2513,-88.0778,9.68,3.99,130.1,-9999.0,'1111122,1111122,1111122' 
DISL,ioos:station:DISL:DISL:1,2016-05-02T17:00:00Z,30.2513,-88.0778,9.68,3.53,138.4,-9999.0,'1111122,1111122,1111122' 
DISL,ioos:station:DISL:DISL:1,2016-05-02T17:30:00Z,30.2513,-88.0778,9.68,3.74,145.7,-9999.0,'1111122,1111122,1111122' 
DISL,ioos:station:DISL:DISL:1,2016-05-02T18:00:00Z,30.2513,-88.0778,9.68,3.62,147.3,-9999.0,'1111122,1111122,1111122' 
DISL,ioos:station:DISL:DISL:1,2016-05-02T18:30:00Z,30.2513,-88.0778,9.68,4.22,141.6,-9999.0,'1111122,1111122,1111122' 
DISL,ioos:station:DISL:DISL:1,2016-05-02T19:00:00Z,30.2513,-88.0778,9.68,4.44,139.2,-9999.0,'1111122,1111122,1111122' 
DISL,ioos:station:DISL:DISL:1,2016-05-02T19:30:00Z,30.2513,-88.0778,9.68,4.65,164.3,-9999.0,'1111122,1111122,1111122' 
DISL,ioos:station:DISL:DISL:1,2016-05-02T20:00:00Z,30.2513,-88.0778,9.68,4.0,170.0,-9999.0,'1111122,1111122,1111122' 
DISL,ioos:station:DISL:DISL:1,2016-05-02T20:30:00Z,30.2513,-88.0778,9.68,4.24,164.1,-9999.0,'1111122,1111122,1111122' 
DISL,ioos:station:DISL:DISL:1,2016-05-02T21:00:00Z,30.2513,-88.0778,9.68,3.13,168.0,-9999.0,'1111122,1111122,1111122' 
DISL,ioos:station:DISL:DISL:1,2016-05-02T21:30:00Z,30.2513,-88.0778,9.68,3.4,177.7,-9999.0,'1111122,1111122,1111122' 
DISL,ioos:station:DISL:DISL:1,2016-05-02T22:00:00Z,30.2513,-88.0778,9.68,3.34,182.7,-9999.0,'1111122,1111122,1111122' 
DISL,ioos:station:DISL:DISL:1,2016-05-02T22:30:00Z,30.2513,-88.0778,9.68,3.81,181.8,-9999.0,'1111122,1111122,1111122' 
DISL,ioos:station:DISL:DISL:1,2016-05-02T23:00:00Z,30.2513,-88.0778,9.68,3.01,184.1,-9999.0,'1111122,1111122,1111122' 
DISL,ioos:station:DISL:DISL:1,2016-05-02T23:30:00Z,30.2513,-88.0778,9.68,3.01,183.0,-9999.0,'1111122,1111122,1111122' 
DISL,ioos:station:DISL:DISL:1,2016-05-03T00:00:00Z,30.2513,-88.0778,9.68,1.95,190.7,-9999.0,'1111122,1111122,1111122' 
DISL,ioos:station:DISL:DISL:1,2016-05-03T00:30:00Z,30.2513,-88.0778,9.68,2.01,171.0,-9999.0,'1111122,1111122,1111122' 
DISL,ioos:station:DISL:DISL:1,2016-05-03T01:00:00Z,30.2513,-88.0778,9.68,1.73,156.9,-9999.0,'1111122,1111122,1111122' 
DISL,ioos:station:DISL:DISL:1,2016-05-03T01:30:00Z,30.2513,-88.0778,9.68,1.91,96.5,-9999.0,'1111122,1111122,1111122' 
DISL,ioos:station:DISL:DISL:1,2016-05-03T02:00:00Z,30.2513,-88.0778,9.68,5.47,50.45,-9999.0,'1111122,1111122,1111122' 
DISL,ioos:station:DISL:DISL:1,2016-05-03T02:30:00Z,30.2513,-88.0778,9.68,2.69,73.31,-9999.0,'1111122,1111122,1111122' 
DISL,ioos:station:DISL:DISL:1,2016-05-03T03:00:00Z,30.2513,-88.0778,9.68,2.3,124.7,-9999.0,'1111122,1111122,1111122' 
DISL,ioos:station:DISL:DISL:1,2016-05-03T03:30:00Z,30.2513,-88.0778,9.68,0.27,260.5,-9999.0,'1111122,1111122,1111122' 
DISL,ioos:station:DISL:DISL:1,2016-05-03T04:00:00Z,30.2513,-88.0778,9.68,1.41,153.6,-9999.0,'1111122,1111122,1111122' 
DISL,ioos:station:DISL:DISL:1,2016-05-03T04:30:00Z,30.2513,-88.0778,9.68,0.93,149.3,-9999.0,'1111122,1111122,1111122' 
DISL,ioos:station:DISL:DISL:1,2016-05-03T05:00:00Z,30.2513,-88.0778,9.68,1.15,190.4,-9999.0,'1111122,1111122,1111122' 
DISL,ioos:station:DISL:DISL:1,2016-05-03T05:30:00Z,30.2513,-88.0778,9.68,1.7,209.7,-9999.0,'1111122,1111122,1111122' 
DISL,ioos:station:DISL:DISL:1,2016-05-03T06:00:00Z,30.2513,-88.0778,9.68,1.46,221.2,-9999.0,'1111122,1111122,1111122' 
DISL,ioos:station:DISL:DISL:1,2016-05-03T06:30:00Z,30.2513,-88.0778,9.68,1.7,244.9,-9999.0,'1111122,1111122,1111122' 
DISL,ioos:station:DISL:DISL:1,2016-05-03T07:00:00Z,30.2513,-88.0778,9.68,1.93,242.4,-9999.0,'1111122,1111122,1111122' 
DISL,ioos:station:DISL:DISL:1,2016-05-03T07:30:00Z,30.2513,-88.0778,9.68,2.09,251.2,-9999.0,'1111122,1111122,1111122' 
DISL,ioos:station:DISL:DISL:1,2016-05-03T08:00:00Z,30.2513,-88.0778,9.68,1.96,249.6,-9999.0,'1111122,1111122,1111122' 
DISL,ioos:station:DISL:DISL:1,2016-05-03T08:30:00Z,30.2513,-88.0778,9.68,1.94,240.7,-9999.0,'1111122,1111122,1111122' 
DISL,ioos:station:DISL:DISL:1,2016-05-03T09:00:00Z,30.2513,-88.0778,9.68,1.82,254.3,-9999.0,'1111122,1111122,1111122' 
DISL,ioos:station:DISL:DISL:1,2016-05-03T09:30:00Z,30.2513,-88.0778,9.68,1.39,261.0,-9999.0,'1111122,1111122,1111122' 
DISL,ioos:station:DISL:DISL:1,2016-05-03T10:00:00Z,30.2513,-88.0778,9.68,1.8,254.8,-9999.0,'1111122,1111122,1111122' 
DISL,ioos:station:DISL:DISL:1,2016-05-03T10:30:00Z,30.2513,-88.0778,9.68,2.47,279.5,-9999.0,'1111122,1111122,1111122' 
DISL,ioos:station:DISL:DISL:1,2016-05-03T11:00:00Z,30.2513,-88.0778,9.68,4.47,320.6,-9999.0,'1111122,1111122,1111122' 
DISL,ioos:station:DISL:DISL:1,2016-05-03T11:30:00Z,30.2513,-88.0778,9.68,4.31,327.6,-9999.0,'1111122,1111122,1111122' 
DISL,ioos:station:DISL:DISL:1,2016-05-03T12:00:00Z,30.2513,-88.0778,9.68,2.95,329.8,-9999.0,'1111122,1111122,1111122' 
DISL,ioos:station:DISL:DISL:1,2016-05-03T12:30:00Z,30.2513,-88.0778,9.68,4.3,334.3,-9999.0,'1111122,1111122,1111122' 
DISL,ioos:station:DISL:DISL:1,2016-05-03T13:00:00Z,30.2513,-88.0778,9.68,3.79,355.5,-9999.0,'1111122,1111122,1111122' 
DISL,ioos:station:DISL:DISL:1,2016-05-03T13:30:00Z,30.2513,-88.0778,9.68,4.29,339.2,-9999.0,'1111122,1111122,1111122' 
DISL,ioos:station:DISL:DISL:1,2016-05-03T14:00:00Z,30.2513,-88.0778,9.68,6.25,7.724,-9999.0,'1111122,1111122,1111122' 
DISL,ioos:station:DISL:DISL:1,2016-05-03T14:30:00Z,30.2513,-88.0778,9.68,6.79,15.04,-9999.0,'1111122,1111122,1111122' 
DISL,ioos:station:DISL:DISL:1,2016-05-03T15:00:00Z,30.2513,-88.0778,9.68,7.44,12.68,-9999.0,'1111122,1111122,1111122' 
DISL,ioos:station:DISL:DISL:1,2016-05-03T15:30:00Z,30.2513,-88.0778,9.68,6.48,10.24,-9999.0,'1111122,1111122,1111122' 
DISL,ioos:station:DISL:DISL:1,2016-05-03T16:00:00Z,30.2513,-88.0778,9.68,4.98,23.5,-9999.0,'1111122,1111122,1111122' 
DISL,ioos:station:DISL:DISL:1,2016-05-03T16:30:00Z,30.2513,-88.0778,9.68,4.28,28.32,-9999.0,'1111122,1111122,1111122' 
DISL,ioos:station:DISL:DISL:1,2016-05-03T17:00:00Z,30.2513,-88.0778,9.68,4.07,29.64,-9999.0,'1111122,1111122,1111122' 
DISL,ioos:station:DISL:DISL:1,2016-05-03T17:30:00Z,30.2513,-88.0778,9.68,3.12,33.15,-9999.0,'1111122,1111122,1111122' 
DISL,ioos:station:DISL:DISL:1,2016-05-03T18:00:00Z,30.2513,-88.0778,9.68,3.53,19.05,-9999.0,'1111122,1111122,1111122' 
DISL,ioos:station:DISL:DISL:1,2016-05-03T18:30:00Z,30.2513,-88.0778,9.68,1.66,44.12,-9999.0,'1111122,1111122,1111122' 
DISL,ioos:station:DISL:DISL:1,2016-05-03T19:00:00Z,30.2513,-88.0778,9.68,1.04,24.96,-9999.0,'1111122,1111122,1111122' 
DISL,ioos:station:DISL:DISL:1,2016-05-03T19:30:00Z,30.2513,-88.0778,9.68,1.05,8.02,-9999.0,'1111122,1111122,1111122' 
DISL,ioos:station:DISL:DISL:1,2016-05-03T20:00:00Z,30.2513,-88.0778,9.68,1.35,346.7,-9999.0,'1111122,1111122,1111122' 
DISL,ioos:station:DISL:DISL:1,2016-05-03T20:30:00Z,30.2513,-88.0778,9.68,0.82,41.16,-9999.0,'1111122,1111122,1111122' 
DISL,ioos:station:DISL:DISL:1,2016-05-03T21:00:00Z,30.2513,-88.0778,9.68,0.35,92.2,-9999.0,'1111122,1111122,1111122' 
DISL,ioos:station:DISL:DISL:1,2016-05-03T21:30:00Z,30.2513,-88.0778,9.68,1.07,209.2,-9999.0,'1111122,1111122,1111122' 
DISL,ioos:station:DISL:DISL:1,2016-05-03T22:00:00Z,30.2513,-88.0778,9.68,1.43,231.2,-9999.0,'1111122,1111122,1111122' 
DISL,ioos:station:DISL:DISL:1,2016-05-03T22:30:00Z,30.2513,-88.0778,9.68,1.7,260.6,-9999.0,'1111122,1111122,1111122' 
DISL,ioos:station:DISL:DISL:1,2016-05-03T23:00:00Z,30.2513,-88.0778,9.68,6.28,328.4,-9999.0,'1111122,1111122,1111122' 
DISL,ioos:station:DISL:DISL:1,2016-05-03T23:30:00Z,30.2513,-88.0778,9.68,5.49,328.2,-9999.0,'1111122,1111122,1111122' 
DISL,ioos:station:DISL:DISL:1,2016-05-04T00:00:00Z,30.2513,-88.0778,9.68,4.17,320.9,-9999.0,'1111122,1111122,1111122' 
DISL,ioos:station:DISL:DISL:1,2016-05-04T00:30:00Z,30.2513,-88.0778,9.68,3.68,332.4,-9999.0,'1111122,1111122,1111122' 
DISL,ioos:station:DISL:DISL:1,2016-05-04T01:00:00Z,30.2513,-88.0778,9.68,5.62,329.0,-9999.0,'1111122,1111122,1111122' 
DISL,ioos:station:DISL:DISL:1,2016-05-04T01:30:00Z,30.2513,-88.0778,9.68,5.4,331.1,-9999.0,'1111122,1111122,1111122' 
DISL,ioos:station:DISL:DISL:1,2016-05-04T02:00:00Z,30.2513,-88.0778,9.68,5.23,335.3,-9999.0,'1111122,1111122,1111122' 
DISL,ioos:station:DISL:DISL:1,2016-05-04T02:30:00Z,30.2513,-88.0778,9.68,3.62,332.3,-9999.0,'1111122,1111122,1111122' 
DISL,ioos:station:DISL:DISL:1,2016-05-04T03:00:00Z,30.2513,-88.0778,9.68,4.52,319.1,-9999.0,'1111122,1111122,1111122' 
DISL,ioos:station:DISL:DISL:1,2016-05-04T03:30:00Z,30.2513,-88.0778,9.68,5.64,328.3,-9999.0,'1111122,1111122,1111122' 
DISL,ioos:station:DISL:DISL:1,2016-05-04T04:00:00Z,30.2513,-88.0778,9.68,5.36,323.2,-9999.0,'1111122,1111122,1111122' 
DISL,ioos:station:DISL:DISL:1,2016-05-04T04:30:00Z,30.2513,-88.0778,9.68,5.39,333.3,-9999.0,'1111122,1111122,1111122' 
DISL,ioos:station:DISL:DISL:1,2016-05-04T05:00:00Z,30.2513,-88.0778,9.68,5.08,332.8,-9999.0,'1111122,1111122,1111122' 
DISL,ioos:station:DISL:DISL:1,2016-05-04T05:30:00Z,30.2513,-88.0778,9.68,5.25,329.2,-9999.0,'1111122,1111122,1111122' 
DISL,ioos:station:DISL:DISL:1,2016-05-04T06:00:00Z,30.2513,-88.0778,9.68,7.57,323.8,-9999.0,'1111122,1111122,1111122' 
DISL,ioos:station:DISL:DISL:1,2016-05-04T06:30:00Z,30.2513,-88.0778,9.68,8.49,343.5,-9999.0,'1111122,1111122,1111122' 
DISL,ioos:station:DISL:DISL:1,2016-05-04T07:00:00Z,30.2513,-88.0778,9.68,8.55,343.4,-9999.0,'1111122,1111122,1111122' 
DISL,ioos:station:DISL:DISL:1,2016-05-04T07:30:00Z,30.2513,-88.0778,9.68,8.69,344.9,-9999.0,'1111122,1111122,1111122' 
DISL,ioos:station:DISL:DISL:1,2016-05-04T08:00:00Z,30.2513,-88.0778,9.68,8.81,348.5,-9999.0,'1111122,1111122,1111122' 
DISL,ioos:station:DISL:DISL:1,2016-05-04T08:30:00Z,30.2513,-88.0778,9.68,9.79,349.8,-9999.0,'1111122,1111122,1111122' 
DISL,ioos:station:DISL:DISL:1,2016-05-04T09:00:00Z,30.2513,-88.0778,9.68,9.87,345.1,-9999.0,'1111122,1111122,1111122' 
DISL,ioos:station:DISL:DISL:1,2016-05-04T09:30:00Z,30.2513,-88.0778,9.68,9.93,350.6,-9999.0,'1111122,1111122,1111122' 
DISL,ioos:station:DISL:DISL:1,2016-05-04T10:00:00Z,30.2513,-88.0778,9.68,10.45,3.198,-9999.0,'1111122,1111122,1111122' 
DISL,ioos:station:DISL:DISL:1,2016-05-04T10:30:00Z,30.2513,-88.0778,9.68,9.41,347.4,-9999.0,'1111122,1111122,1111122' 
DISL,ioos:station:DISL:DISL:1,2016-05-04T11:00:00Z,30.2513,-88.0778,9.68,9.23,346.5,-9999.0,'1111122,1111122,1111122' 
DISL,ioos:station:DISL:DISL:1,2016-05-04T11:30:00Z,30.2513,-88.0778,9.68,9.95,349.6,-9999.0,'1111122,1111122,1111122' 
DISL,ioos:station:DISL:DISL:1,2016-05-04T12:00:00Z,30.2513,-88.0778,9.68,9.71,349.7,-9999.0,'1111122,1111122,1111122' 
DISL,ioos:station:DISL:DISL:1,2016-05-04T12:30:00Z,30.2513,-88.0778,9.68,8.57,358.4,-9999.0,'1111122,1111122,1111122' 
DISL,ioos:station:DISL:DISL:1,2016-05-04T13:00:00Z,30.2513,-88.0778,9.68,7.04,358.6,-9999.0,'1111122,1111122,1111122' 
DISL,ioos:station:DISL:DISL:1,2016-05-04T13:30:00Z,30.2513,-88.0778,9.68,7.43,350.5,-9999.0,'1111122,1111122,1111122' 
DISL,ioos:station:DISL:DISL:1,2016-05-04T14:00:00Z,30.2513,-88.0778,9.68,7.39,359.0,-9999.0,'1111122,1111122,1111122' 
DISL,ioos:station:DISL:DISL:1,2016-05-04T14:30:00Z,30.2513,-88.0778,9.68,6.61,2.065,-9999.0,'1111122,1111122,1111122' 
DISL,ioos:station:DISL:DISL:1,2016-05-04T15:00:00Z,30.2513,-88.0778,9.68,6.56,3.39,-9999.0,'1111122,1111122,1111122' 
DISL,ioos:station:DISL:DISL:1,2016-05-04T15:30:00Z,30.2513,-88.0778,9.68,6.33,2.531,-9999.0,'1111122,1111122,1111122' 
DISL,ioos:station:DISL:DISL:1,2016-05-04T16:00:00Z,30.2513,-88.0778,9.68,6.99,349.0,-9999.0,'1111122,1111122,1111122' 
DISL,ioos:station:DISL:DISL:1,2016-05-04T16:30:00Z,30.2513,-88.0778,9.68,6.67,8.91,-9999.0,'1111122,1111122,1111122' 
DISL,ioos:station:DISL:DISL:1,2016-05-04T17:00:00Z,30.2513,-88.0778,9.68,6.61,7.933,-9999.0,'1111122,1111122,1111122' 
DISL,ioos:station:DISL:DISL:1,2016-05-04T17:30:00Z,30.2513,-88.0778,9.68,7.23,5.303,-9999.0,'1111122,1111122,1111122' 
DISL,ioos:station:DISL:DISL:1,2016-05-04T18:00:00Z,30.2513,-88.0778,9.68,6.46,8.01,-9999.0,'1111122,1111122,1111122' 
DISL,ioos:station:DISL:DISL:1,2016-05-04T18:30:00Z,30.2513,-88.0778,9.68,6.63,357.6,-9999.0,'1111122,1111122,1111122' 
DISL,ioos:station:DISL:DISL:1,2016-05-04T19:00:00Z,30.2513,-88.0778,9.68,6.53,335.6,-9999.0,'1111122,1111122,1111122' 
DISL,ioos:station:DISL:DISL:1,2016-05-04T19:30:00Z,30.2513,-88.0778,9.68,6.82,334.1,-9999.0,'1111122,1111122,1111122' 
DISL,ioos:station:DISL:DISL:1,2016-05-04T20:00:00Z,30.2513,-88.0778,9.68,5.84,321.5,-9999.0,'1111122,1111122,1111122' 
DISL,ioos:station:DISL:DISL:1,2016-05-04T20:30:00Z,30.2513,-88.0778,9.68,7.91,324.4,-9999.0,'1111122,1111122,1111122' 
DISL,ioos:station:DISL:DISL:1,2016-05-04T21:00:00Z,30.2513,-88.0778,9.68,8.46,326.5,-9999.0,'1111122,1111122,1111122' 
DISL,ioos:station:DISL:DISL:1,2016-05-04T21:30:00Z,30.2513,-88.0778,9.68,7.25,327.5,-9999.0,'1111122,1111122,1111122' 
DISL,ioos:station:DISL:DISL:1,2016-05-04T22:00:00Z,30.2513,-88.0778,9.68,7.09,307.9,-9999.0,'1111122,1111122,1111122' 
DISL,ioos:station:DISL:DISL:1,2016-05-04T22:30:00Z,30.2513,-88.0778,9.68,7.28,318.4,-9999.0,'1111122,1111122,1111122' 
DISL,ioos:station:DISL:DISL:1,2016-05-04T23:00:00Z,30.2513,-88.0778,9.68,7.45,308.8,-9999.0,'1111122,1111122,1111122' 
DISL,ioos:station:DISL:DISL:1,2016-05-04T23:30:00Z,30.2513,-88.0778,9.68,7.5,311.0,-9999.0,'1111122,1111122,1111122' 
DISL,ioos:station:DISL:DISL:1,2016-05-05T00:00:00Z,30.2513,-88.0778,9.68,6.68,314.1,-9999.0,'1111122,1111122,1111122' 
DISL,ioos:station:DISL:DISL:1,2016-05-05T00:30:00Z,30.2513,-88.0778,9.68,6.36,314.4,-9999.0,'1111122,1111122,1111122' 
DISL,ioos:station:DISL:DISL:1,2016-05-05T01:00:00Z,30.2513,-88.0778,9.68,5.93,309.8,-9999.0,'1111122,1111122,1111122' 
DISL,ioos:station:DISL:DISL:1,2016-05-05T01:30:00Z,30.2513,-88.0778,9.68,5.4,308.5,-9999.0,'1111122,1111122,1111122' 
DISL,ioos:station:DISL:DISL:1,2016-05-05T02:00:00Z,30.2513,-88.0778,9.68,4.31,302.8,-9999.0,'1111122,1111122,1111122' 
DISL,ioos:station:DISL:DISL:1,2016-05-05T02:30:00Z,30.2513,-88.0778,9.68,4.19,299.9,-9999.0,'1111122,1111122,1111122' 
DISL,ioos:station:DISL:DISL:1,2016-05-05T03:00:00Z,30.2513,-88.0778,9.68,4.08,292.5,-9999.0,'1111122,1111122,1111122' 
DISL,ioos:station:DISL:DISL:1,2016-05-05T03:30:00Z,30.2513,-88.0778,9.68,5.14,287.3,-9999.0,'1111122,1111122,1111122' 